Location: Unspecified
(48.2082°N, 0.0000°E)
Time: 19:31:48
(UTC+00:00)

Tiros 1 despin weight - Pass Details

Date: 28 June 2019
Orbit: 594 x 642 km, 48.2° (Epoch: 16 July)

Event Time Altitude Azimuth Distance (km) Brightness Sun altitude
Rises 01:22:46 0° 282° (WNW) 2,846 ? -16.3°
Reaches altitude 10° 01:25:05 10° 279° (W) 1,937 ? -16.2°
Maximum altitude 01:29:28 62° 200° (SSW) 672 ? -15.9°
Drops below altitude 10° 01:33:48 10° 119° (ESE) 1,923 ? -15.7°
Sets 01:36:06 0° 116° (ESE) 2,823 ? -15.5°
